Location: Newark
(43.6583°N, 1.6617°E)
Time: 08:00:31
(UTC+00:00)

Tiros 1 - Pass Details

Date: 28 August 2019
Orbit: 630 x 664 km, 48.4° (Epoch: 21 September)

Event Time Altitude Azimuth Distance (km) Brightness Sun altitude
Rises 00:08:59 0° 274° (W) 2,915 - -36.4°
Reaches altitude 10° 00:11:23 10° 280° (W) 2,009 - -36.3°
Maximum altitude 00:15:51 47° 355° (N) 838 - -36.2°
Drops below altitude 10° 00:20:21 10° 70° (ENE) 2,022 - -36.1°
Exits shadow 00:22:26 - 75° (ENE) 2,814 10.7 -36.1°
Sets 00:22:45 0° 76° (ENE) 2,936 10.8 -36.1°
